| time (UTC) | temp C | wind direction | speed KPH | gust KPH | rain 1hr cm | rain 24hr cm | rain mn cm | humidity % | barometer mb |
| 20260509173050 | 15 | 109 | 1.6 | 8.0 | 0.00 | 0.05 | 0.05 | 75 | 991.0 |
| 20260509171539 | 15 | 46 | 0.0 | 3.2 | 0.00 | 0.05 | 0.05 | 80 | 991.3 |
| 20260509170033 | 14 | 28 | 0.0 | 3.2 | 0.00 | 0.05 | 0.05 | 78 | 991.5 |
| 20260509164526 | 13 | 65 | 0.0 | 1.6 | 0.00 | 0.05 | 0.05 | 79 | 991.5 |
| 20260509163025 | 13 | 61 | 0.0 | 3.2 | 0.00 | 0.05 | 0.05 | 78 | 991.6 |
| 20260509161524 | 13 | 140 | 0.0 | 3.2 | 0.00 | 0.05 | 0.05 | 78 | 991.9 |
| 20260509160022 | 13 | 174 | 0.0 | 3.2 | 0.00 | 0.05 | 0.05 | 81 | 991.9 |
| 20260509154521 | 13 | 174 | 0.0 | 1.6 | 0.00 | 0.05 | 0.05 | 83 | 991.6 |
| 20260509153020 | 13 | 117 | 0.0 | 3.2 | 0.00 | 0.05 | 0.05 | 81 | 991.5 |
| 20260509151519 | 12 | 141 | 0.0 | 3.2 | 0.00 | 0.05 | 0.05 | 86 | 991.7 |
| 20260509150015 | 12 | 238 | 0.0 | 0.0 | 0.00 | 0.05 | 0.05 | 86 | 991.7 |
| 20260509144514 | 11 | 182 | 0.0 | 0.0 | 0.00 | 0.05 | 0.05 | 89 | 991.9 |
| 20260509143015 | 11 | 121 | 0.0 | 0.0 | 0.00 | 0.05 | 0.05 | 90 | 992.0 |
| 20260509141520 | 11 | 121 | 0.0 | 0.0 | 0.03 | 0.05 | 0.05 | 90 | 992.0 |
| 20260509140015 | 10 | 121 | 0.0 | 0.0 | 0.03 | 0.05 | 0.05 | 91 | 991.8 |
| 20260509134512 | 10 | 121 | 0.0 | 0.0 | 0.03 | 0.05 | 0.05 | 91 | 991.7 |
| 20260509133013 | 10 | 121 | 0.0 | 0.0 | 0.05 | 0.05 | 0.05 | 90 | 991.8 |
| 20260509131515 | 10 | 121 | 0.0 | 1.6 | 0.03 | 0.03 | 0.03 | 90 | 992.0 |
| 20260509130009 | 10 | 119 | 1.6 | 3.2 | 0.03 | 0.03 | 0.03 | 89 | 991.8 |
| 20260509124507 | 10 | 98 | 0.0 | 3.2 | 0.03 | 0.03 | 0.03 | 89 | 991.8 |
| 20260509123018 | 10 | 355 | 1.6 | 4.8 | 0.00 | 0.00 | 0.00 | 86 | 991.4 |
| 20260509121506 | 10 | 5 | 0.0 | 3.2 | 0.00 | 0.00 | 0.00 | 85 | 991.8 |
| 20260509120006 | 11 | 5 | 1.6 | 3.2 | 0.00 | 0.00 | 0.00 | 83 | 991.8 |
| 20260509114505 | 11 | 104 | 0.0 | 1.6 | 0.00 | 0.00 | 0.00 | 84 | 991.9 |
| 20260509113003 | 10 | 104 | 0.0 | 1.6 | 0.00 | 0.00 | 0.00 | 87 | 991.8 |
| 20260509111502 | 10 | 86 | 0.0 | 1.6 | 0.00 | 0.00 | 0.00 | 86 | 991.8 |
| 20260509110108 | 10 | 142 | 0.0 | 1.6 | 0.00 | 0.00 | 0.00 | 85 | 991.7 |
| 20260509104610 | 10 | 142 | 0.0 | 1.6 | 0.00 | 0.00 | 0.00 | 85 | 991.5 |
| 20260509103058 | 10 | 127 | 0.0 | 0.0 | 0.00 | 0.00 | 0.00 | 84 | 991.1 |
| 20260509101559 | 10 | 127 | 0.0 | 3.2 | 0.00 | 0.00 | 0.00 | 84 | 991.1 |
| 20260509100057 | 10 | 127 | 0.0 | 0.0 | 0.00 | 0.00 | 0.00 | 84 | 991.2 |
| 20260509094610 | 10 | 127 | 0.0 | 0.0 | 0.00 | 0.00 | 0.00 | 82 | 991.1 |
| 20260509093055 | 10 | 127 | 0.0 | 0.0 | 0.00 | 0.00 | 0.00 | 83 | 990.8 |
| 20260509091556 | 10 | 127 | 0.0 | 0.0 | 0.00 | 0.00 | 0.00 | 83 | 990.8 |
| 20260509084600 | 10 | 127 | 0.0 | 1.6 | 0.00 | 0.00 | 0.00 | 83 | 990.9 |
| 20260509083051 | 10 | 127 | 0.0 | 0.0 | 0.00 | 0.00 | 0.00 | 82 | 990.9 |
| 20260509081550 | 10 | 127 | 0.0 | 0.0 | 0.00 | 0.00 | 0.00 | 81 | 990.9 |
| 20260509080048 | 10 | 127 | 0.0 | 0.0 | 0.00 | 0.00 | 0.00 | 81 | 991.1 |
| 20260509074551 | 11 | 127 | 0.0 | 0.0 | 0.00 | 0.00 | 0.00 | 81 | 991.0 |
| 20260509073047 | 10 | 129 | 1.6 | 4.8 | 0.00 | 0.00 | 0.00 | 80 | 991.1 |
| 20260509071548 | 10 | 229 | 0.0 | 0.0 | 0.00 | 0.00 | 0.00 | 79 | 991.1 |
| 20260509070046 | 10 | 229 | 0.0 | 1.6 | 0.00 | 0.00 | 0.00 | 77 | 991.1 |
| 20260509064542 | 10 | 229 | 0.0 | 0.0 | 0.00 | 0.00 | 0.00 | 77 | 990.9 |
| 20260509063041 | 10 | 229 | 0.0 | 0.0 | 0.00 | 0.00 | 0.00 | 78 | 991.1 |
| 20260509061539 | 11 | 229 | 0.0 | 0.0 | 0.00 | 0.00 | 0.00 | 77 | 991.2 |
| 20260509060039 | 11 | 229 | 0.0 | 0.0 | 0.00 | 0.00 | 0.00 | 76 | 991.3 |
| 20260509054542 | 11 | 229 | 0.0 | 0.0 | 0.00 | 0.00 | 0.00 | 74 | 991.4 |
| 20260509053115 | 11 | 229 | 0.0 | 0.0 | 0.00 | 0.00 | 0.00 | 77 | 991.5 |
| 20260509051542 | 11 | 229 | 0.0 | 0.0 | 0.00 | 0.00 | 0.00 | 73 | 991.6 |
| 20260509050043 | 11 | 229 | 0.0 | 0.0 | 0.00 | 0.00 | 0.00 | 73 | 991.6 |
| 20260509044532 | 11 | 229 | 0.0 | 0.0 | 0.00 | 0.00 | 0.00 | 75 | 991.5 |
| 20260509043030 | 11 | 229 | 0.0 | 0.0 | 0.00 | 0.00 | 0.00 | 76 | 991.4 |
| 20260509041529 | 11 | 229 | 0.0 | 0.0 | 0.00 | 0.00 | 0.00 | 74 | 991.4 |
| 20260509040025 | 12 | 229 | 0.0 | 0.0 | 0.00 | 0.00 | 0.00 | 74 | 991.6 |
| 20260509034524 | 12 | 229 | 0.0 | 0.0 | 0.00 | 0.00 | 0.00 | 69 | 991.8 |
| 20260509033026 | 12 | 229 | 0.0 | 0.0 | 0.00 | 0.00 | 0.00 | 68 | 991.9 |
| 20260509031524 | 12 | 229 | 0.0 | 3.2 | 0.00 | 0.00 | 0.00 | 66 | 991.9 |
| 20260509030031 | 13 | 229 | 0.0 | 0.0 | 0.00 | 0.00 | 0.00 | 71 | 992.0 |
| 20260509024523 | 13 | 229 | 0.0 | 0.0 | 0.00 | 0.00 | 0.00 | 71 | 992.0 |
| 20260509023029 | 13 | 111 | 0.0 | 4.8 | 0.00 | 0.00 | 0.00 | 74 | 991.9 |
| 20260509021522 | 13 | 173 | 0.0 | 3.2 | 0.00 | 0.00 | 0.00 | 69 | 992.1 |
| 20260509020022 | 13 | 122 | 0.0 | 3.2 | 0.00 | 0.00 | 0.00 | 66 | 992.0 |
| 20260509014520 | 13 | 177 | 0.0 | 0.0 | 0.00 | 0.00 | 0.00 | 68 | 992.2 |
| 20260509013026 | 13 | 177 | 0.0 | 3.2 | 0.00 | 0.00 | 0.00 | 63 | 992.1 |
| 20260509011520 | 13 | 177 | 0.0 | 0.0 | 0.00 | 0.00 | 0.00 | 64 | 991.9 |
| 20260509010020 | 13 | 177 | 0.0 | 0.0 | 0.00 | 0.00 | 0.00 | 63 | 991.8 |
| 20260509004518 | 14 | 177 | 0.0 | 0.0 | 0.00 | 0.00 | 0.00 | 64 | 991.8 |
| 20260509003033 | 15 | 227 | 0.0 | 0.0 | 0.00 | 0.00 | 0.00 | 59 | 991.7 |
| 20260509001518 | 16 | 205 | 0.0 | 0.0 | 0.00 | 0.00 | 0.00 | 53 | 991.6 |
| 20260509000017 | 17 | 205 | 0.0 | 0.0 | 0.00 | 0.00 | 0.00 | 50 | 991.5 |
| 20260508234518 | 18 | 205 | 0.0 | 0.0 | 0.00 | 0.00 | 0.00 | 46 | 991.4 |
| 20260508233016 | 18 | 205 | 0.0 | 1.6 | 0.00 | 0.00 | 0.00 | 44 | 991.3 |
| 20260508231516 | 18 | 306 | 0.0 | 1.6 | 0.00 | 0.00 | 0.00 | 42 | 991.3 |
| 20260508230015 | 18 | 302 | 0.0 | 0.0 | 0.00 | 0.00 | 0.00 | 44 | 991.4 |
| 20260508224513 | 18 | 302 | 0.0 | 1.6 | 0.00 | 0.00 | 0.00 | 45 | 991.3 |
| 20260508223017 | 18 | 263 | 1.6 | 4.8 | 0.00 | 0.00 | 0.00 | 41 | 991.4 |
| 20260508221520 | 18 | 286 | 0.0 | 3.2 | 0.00 | 0.00 | 0.00 | 39 | 991.5 |
| 20260508220016 | 18 | 261 | 0.0 | 4.8 | 0.00 | 0.00 | 0.00 | 41 | 991.4 |
| 20260508214511 | 18 | 265 | 1.6 | 11.3 | 0.00 | 0.00 | 0.00 | 39 | 991.5 |
| 20260508213010 | 18 | 269 | 0.0 | 4.8 | 0.00 | 0.00 | 0.00 | 39 | 991.6 |
| 20260508211508 | 18 | 271 | 0.0 | 3.2 | 0.00 | 0.00 | 0.00 | 38 | 991.6 |
| 20260508210008 | 18 | 265 | 0.0 | 6.4 | 0.00 | 0.00 | 0.00 | 37 | 991.7 |
| 20260508204508 | 18 | 234 | 3.2 | 8.0 | 0.00 | 0.00 | 0.00 | 36 | 991.7 |
| 20260508203005 | 18 | 246 | 1.6 | 8.0 | 0.00 | 0.00 | 0.00 | 37 | 991.9 |
| 20260508201505 | 19 | 277 | 3.2 | 14.5 | 0.00 | 0.00 | 0.00 | 36 | 992.0 |
| 20260508200005 | 19 | 197 | 1.6 | 11.3 | 0.00 | 0.00 | 0.00 | 36 | 991.9 |
| 20260508194503 | 19 | 241 | 4.8 | 16.1 | 0.00 | 0.00 | 0.00 | 33 | 992.0 |
| 20260508193003 | 20 | 267 | 6.4 | 12.9 | 0.00 | 0.00 | 0.00 | 32 | 992.0 |
| 20260508191600 | 19 | 273 | 6.4 | 14.5 | 0.00 | 0.00 | 0.00 | 33 | 992.2 |
| 20260508190101 | 18 | 215 | 4.8 | 12.9 | 0.00 | 0.00 | 0.00 | 33 | 992.4 |
| 20260508184609 | 19 | 244 | 9.7 | 19.3 | 0.00 | 0.00 | 0.00 | 31 | 992.7 |
| 20260508183106 | 20 | 218 | 1.6 | 12.9 | 0.00 | 0.00 | 0.00 | 32 | 992.7 |
| 20260508181555 | 19 | 279 | 4.8 | 16.1 | 0.00 | 0.00 | 0.00 | 33 | 992.8 |
| 20260508180054 | 19 | 248 | 6.4 | 17.7 | 0.00 | 0.00 | 0.00 | 32 | 992.8 |
| 20260508174604 | 18 | 221 | 6.4 | 14.5 | 0.00 | 0.00 | 0.00 | 35 | 993.2 |